This is the latest recevied weather packets stored in our database for station/object KB1FFS. If no packets are shown the sender has not sent any weather packets the latest 10 day(s).
| Time | Temp. | Humidity | Pressure | Rain* | Wind** | Luminosity | Snow |
|---|---|---|---|---|---|---|---|
| 1788049129 | 36.67° C | 31% | 1014.4 hPa | 0 mm | - | 27 W/m² | - |
| 1788048829 | 36.67° C | 30% | 1014.3 hPa | 0 mm | - | 31 W/m² | - |
| 1788048529 | 36.67° C | 31% | 1014.6 hPa | 0 mm | - | 34 W/m² | - |
| 1788048227 | 36.67° C | 30% | 1014.5 hPa | 0 mm | - | 37 W/m² | - |
| 1788047924 | 36.67° C | 32% | 1014.5 hPa | 0 mm | - | 54 W/m² | - |
| 1788047619 | 36.67° C | 31% | 1014.7 hPa | 0 mm | - | 38 W/m² | - |
| 1788047319 | 37.22° C | 30% | 1014.5 hPa | 0 mm | - | 40 W/m² | - |
| 1788047013 | 37.78° C | 29% | 1014.6 hPa | 0 mm | - | 43 W/m² | - |
| 1788046708 | 37.78° C | 29% | 1014.5 hPa | 0 mm | - | 47 W/m² | - |
| 1788046408 | 37.78° C | 29% | 1014.5 hPa | 0 mm | - | 50 W/m² | - |
| 1788046106 | 37.78° C | 30% | 1014.4 hPa | 0 mm | - | 82 W/m² | - |
| 1788045801 | 38.33° C | 30% | 1014.7 hPa | 0 mm | - | 49 W/m² | - |
| 1788045497 | 38.89° C | 29% | 1014.6 hPa | 0 mm | - | 104 W/m² | - |
| 1788045192 | 38.89° C | 30% | 1014.5 hPa | 0 mm | - | 197 W/m² | - |
| 1788044887 | 39.44° C | 29% | 1014.5 hPa | 0 mm | - | 75 W/m² | - |
| 1788044581 | 39.44° C | 29% | 1014.5 hPa | 0 mm | - | 234 W/m² | - |
| 1788044279 | 39.44° C | 29% | 1014.7 hPa | 0 mm | - | 265 W/m² | - |
| 1788043976 | 38.89° C | 29% | 1014.4 hPa | 0 mm | - | 268 W/m² | - |
| 1788043671 | 39.44° C | 28% | 1014.4 hPa | 0 mm | - | 165 W/m² | - |
| 1788043366 | 40° C | 28% | 1014.6 hPa | 0 mm | - | 298 W/m² | - |
| 1788043065 | 40.56° C | 28% | 1014.7 hPa | 0 mm | - | 317 W/m² | - |
| 1788042761 | 40.56° C | 27% | 1014.7 hPa | 0 mm | - | 353 W/m² | - |
| 1788042460 | 40.56° C | 28% | 1014.7 hPa | 0 mm | - | 383 W/m² | - |
| 1788042155 | 40° C | 28% | 1014.7 hPa | 0 mm | - | 381 W/m² | - |
| 1788041851 | 40° C | 27% | 1014.7 hPa | 0 mm | - | 402 W/m² | - |
* Rain latest hour (hover to see other rain measurements)
** Current wind speed in m/s (hover to see current wind gust speed)